Time,TemperatureF,DewpointF,PressureIn,WindDirection,WindDirectionDegrees,WindSpeedMPH,WindSpeedGustMPH,Humidity,HourlyPrecipIn,Conditions,Clouds,dailyrainin,SoftwareType,DateUTC
2013-08-07 00:01:00,61.0,57.0,30.31,East,98,0.0,0.0,88,-99.99,,,-99.99,,2013-08-07 04:01:00,
2013-08-07 00:11:00,61.0,57.0,30.31,East,98,0.0,0.0,88,-99.99,,,-99.99,,2013-08-07 04:11:00,
2013-08-07 00:21:00,61.0,57.0,30.31,East,98,0.0,0.0,88,-99.99,,,-99.99,,2013-08-07 04:21:00,
2013-08-07 00:33:00,61.0,57.0,30.31,East,98,0.0,0.0,88,-99.99,,,-99.99,,2013-08-07 04:33:00,
2013-08-07 00:43:00,61.0,57.0,30.31,East,98,0.0,0.0,88,-99.99,,,-99.99,,2013-08-07 04:43:00,
2013-08-07 00:52:00,61.0,57.0,30.31,ESE,117,0.0,1.0,88,-99.99,,,-99.99,,2013-08-07 04:52:00,
2013-08-07 01:02:00,61.0,57.0,30.31,ESE,119,0.0,1.0,87,-99.99,,,-99.99,,2013-08-07 05:02:00,
2013-08-07 01:11:00,62.0,58.0,30.31,East,79,0.0,2.0,86,-99.99,,,-99.99,,2013-08-07 05:11:00,
2013-08-07 01:22:00,62.0,58.0,30.31,East,79,0.0,2.0,86,-99.99,,,-99.99,,2013-08-07 05:22:00,
2013-08-07 01:32:00,61.0,57.0,30.31,East,79,0.0,1.0,87,-99.99,,,-99.99,,2013-08-07 05:32:00,
2013-08-07 01:43:00,61.0,57.0,30.32,ESE,105,0.0,1.0,87,-99.99,,,-99.99,,2013-08-07 05:43:00,
2013-08-07 01:52:00,61.0,57.0,30.32,ESE,107,0.0,1.0,87,-99.99,,,-99.99,,2013-08-07 05:52:00,
2013-08-07 02:02:00,61.0,57.0,30.32,ESE,107,0.0,1.0,87,-99.99,,,-99.99,,2013-08-07 06:02:00,
2013-08-07 02:11:00,61.0,57.0,30.32,ESE,102,0.0,1.0,88,-99.99,,,-99.99,,2013-08-07 06:11:00,
2013-08-07 02:22:00,61.0,57.0,30.32,ESE,102,0.0,1.0,88,-99.99,,,-99.99,,2013-08-07 06:22:00,
2013-08-07 02:32:00,61.0,58.0,30.32,SE,136,0.0,1.0,89,-99.99,,,-99.99,,2013-08-07 06:32:00,
2013-08-07 02:43:00,61.0,58.0,30.32,SE,136,0.0,1.0,89,-99.99,,,-99.99,,2013-08-07 06:43:00,
2013-08-07 02:52:00,60.0,57.0,30.32,SE,139,0.0,1.0,90,-99.99,,,-99.99,,2013-08-07 06:52:00,
2013-08-07 03:01:00,60.0,57.0,30.32,SE,139,0.0,1.0,90,-99.99,,,-99.99,,2013-08-07 07:01:00,
2013-08-07 03:12:00,60.0,57.0,30.32,SE,138,0.0,1.0,91,-99.99,,,-99.99,,2013-08-07 07:12:00,
2013-08-07 03:22:00,59.0,56.0,30.32,SE,138,0.0,0.0,91,-99.99,,,-99.99,,2013-08-07 07:22:00,
2013-08-07 03:33:00,59.0,56.0,30.32,SE,139,0.0,0.0,91,-99.99,,,-99.99,,2013-08-07 07:33:00,
2013-08-07 03:43:00,59.0,57.0,30.33,SE,138,0.0,0.0,92,-99.99,,,-99.99,,2013-08-07 07:43:00,
2013-08-07 03:52:00,59.0,57.0,30.33,SE,138,0.0,0.0,92,-99.99,,,-99.99,,2013-08-07 07:52:00,
2013-08-07 04:02:00,59.0,57.0,30.33,SE,139,0.0,0.0,92,-99.99,,,-99.99,,2013-08-07 08:02:00,
2013-08-07 04:22:00,59.0,57.0,30.33,SE,138,0.0,0.0,93,-99.99,,,-99.99,,2013-08-07 08:22:00,
2013-08-07 04:32:00,59.0,57.0,30.33,SE,138,0.0,0.0,93,-99.99,,,-99.99,,2013-08-07 08:32:00,
2013-08-07 04:52:00,59.0,57.0,30.33,SE,138,0.0,0.0,93,-99.99,,,-99.99,,2013-08-07 08:52:00,
2013-08-07 05:02:00,59.0,57.0,30.32,SSE,156,0.0,0.0,94,-99.99,,,-99.99,,2013-08-07 09:02:00,
2013-08-07 05:12:00,59.0,57.0,30.32,SSE,155,0.0,1.0,93,-99.99,,,-99.99,,2013-08-07 09:12:00,
2013-08-07 05:22:00,59.0,57.0,30.32,SSE,155,0.0,1.0,93,-99.99,,,-99.99,,2013-08-07 09:22:00,
2013-08-07 05:43:00,60.0,58.0,30.32,SE,139,0.0,1.0,93,-99.99,,,-99.99,,2013-08-07 09:43:00,
2013-08-07 05:54:00,59.0,57.0,30.32,SE,139,0.0,1.0,93,-99.99,,,-99.99,,2013-08-07 09:54:00,
2013-08-07 06:01:00,59.0,57.0,30.32,SE,139,0.0,1.0,93,-99.99,,,-99.99,,2013-08-07 10:01:00,
2013-08-07 06:11:00,59.0,57.0,30.32,SE,139,0.0,1.0,93,-99.99,,,-99.99,,2013-08-07 10:11:00,
2013-08-07 06:32:00,59.0,57.0,30.34,SE,139,0.0,0.0,94,-99.99,,,-99.99,,2013-08-07 10:32:00,
2013-08-07 06:52:00,59.0,57.0,30.34,SE,140,0.0,0.0,94,-99.99,,,-99.99,,2013-08-07 10:52:00,
2013-08-07 07:01:00,59.0,57.0,30.34,SE,140,0.0,0.0,94,-99.99,,,-99.99,,2013-08-07 11:01:00,
2013-08-07 07:22:00,60.0,58.0,30.34,SE,139,0.0,0.0,94,-99.99,,,-99.99,,2013-08-07 11:22:00,
2013-08-07 07:32:00,60.0,58.0,30.34,SSE,160,0.0,1.0,94,-99.99,,,-99.99,,2013-08-07 11:32:00,
2013-08-07 07:43:00,61.0,59.0,30.35,South,172,0.0,2.0,94,-99.99,,,-99.99,,2013-08-07 11:43:00,
2013-08-07 07:52:00,62.0,60.0,30.35,South,177,0.0,2.0,94,-99.99,,,-99.99,,2013-08-07 11:52:00,
2013-08-07 08:02:00,62.0,60.0,30.35,SSW,205,0.0,1.0,94,-99.99,,,-99.99,,2013-08-07 12:02:00,
2013-08-07 08:11:00,63.0,61.0,30.35,SE,142,1.0,3.0,94,-99.99,,,-99.99,,2013-08-07 12:11:00,
2013-08-07 08:22:00,63.0,61.0,30.35,SE,142,1.0,3.0,94,-99.99,,,-99.99,,2013-08-07 12:22:00,
2013-08-07 08:33:00,64.0,62.0,30.35,South,170,1.0,5.0,92,-99.99,,,-99.99,,2013-08-07 12:33:00,
2013-08-07 08:43:00,65.0,62.0,30.35,SSE,160,0.0,3.0,91,-99.99,,,-99.99,,2013-08-07 12:43:00,
2013-08-07 08:52:00,65.0,62.0,30.35,SSE,160,1.0,3.0,91,-99.99,,,-99.99,,2013-08-07 12:52:00,
2013-08-07 09:02:00,66.0,63.0,30.34,SSE,163,1.0,5.0,89,-99.99,,,-99.99,,2013-08-07 13:02:00,
2013-08-07 09:12:00,68.0,62.0,30.33,ESE,123,2.0,7.0,82,-99.99,,,-99.99,,2013-08-07 13:12:00,
2013-08-07 09:32:00,69.0,62.0,30.33,ESE,115,2.0,5.0,79,-99.99,,,-99.99,,2013-08-07 13:32:00,
2013-08-07 09:44:00,69.0,63.0,30.33,SW,232,1.0,5.0,81,-99.99,,,-99.99,,2013-08-07 13:44:00,
2013-08-07 10:02:00,70.0,61.0,30.33,SSE,155,3.0,8.0,73,-99.99,,,-99.99,,2013-08-07 14:02:00,
2013-08-07 10:12:00,70.0,60.0,30.33,SE,130,1.0,8.0,71,-99.99,,,-99.99,,2013-08-07 14:12:00,
2013-08-07 10:22:00,71.0,60.0,30.33,SSE,161,2.0,5.0,69,-99.99,,,-99.99,,2013-08-07 14:22:00,
2013-08-07 10:33:00,71.0,60.0,30.34,South,169,1.0,7.0,69,-99.99,,,-99.99,,2013-08-07 14:33:00,
2013-08-07 10:43:00,71.0,60.0,30.34,WNW,291,2.0,5.0,69,-99.99,,,-99.99,,2013-08-07 14:43:00,
2013-08-07 11:02:00,71.0,61.0,30.33,South,174,1.0,6.0,70,-99.99,,,-99.99,,2013-08-07 15:02:00,
2013-08-07 11:13:00,71.0,61.0,30.33,South,174,1.0,6.0,70,-99.99,,,-99.99,,2013-08-07 15:13:00,
2013-08-07 11:33:00,72.0,61.0,30.34,WSW,256,2.0,7.0,68,-99.99,,,-99.99,,2013-08-07 15:33:00,
2013-08-07 11:43:00,72.0,61.0,30.34,South,169,2.0,7.0,69,-99.99,,,-99.99,,2013-08-07 15:43:00,
2013-08-07 11:53:00,73.0,63.0,30.33,West,279,2.0,7.0,70,-99.99,,,-99.99,,2013-08-07 15:53:00,
2013-08-07 12:02:00,74.0,62.0,30.33,SSE,155,1.0,6.0,66,-99.99,,,-99.99,,2013-08-07 16:02:00,
2013-08-07 12:11:00,74.0,62.0,30.33,West,274,2.0,7.0,67,-99.99,,,-99.99,,2013-08-07 16:11:00,
2013-08-07 12:43:00,74.0,63.0,30.34,ESE,117,1.0,6.0,69,-99.99,,,-99.99,,2013-08-07 16:43:00,
2013-08-07 12:53:00,74.0,61.0,30.34,WSW,240,1.0,6.0,63,-99.99,,,-99.99,,2013-08-07 16:53:00,
2013-08-07 13:02:00,75.0,61.0,30.34,WSW,248,2.0,8.0,62,-99.99,,,-99.99,,2013-08-07 17:02:00,
2013-08-07 13:11:00,75.0,61.0,30.33,SSW,203,2.0,8.0,62,-99.99,,,-99.99,,2013-08-07 17:11:00,
2013-08-07 13:22:00,76.0,61.0,30.33,NW,325,2.0,7.0,60,-99.99,,,-99.99,,2013-08-07 17:22:00,
2013-08-07 13:33:00,76.0,62.0,30.33,East,90,2.0,8.0,62,-99.99,,,-99.99,,2013-08-07 17:33:00,
2013-08-07 13:43:00,74.0,60.0,30.34,SSE,148,2.0,9.0,62,-99.99,,,-99.99,,2013-08-07 17:43:00,
2013-08-07 13:52:00,74.0,61.0,30.33,NNE,33,3.0,10.0,63,-99.99,,,-99.99,,2013-08-07 17:52:00,
2013-08-07 14:02:00,74.0,61.0,30.33,NNE,33,3.0,10.0,63,-99.99,,,-99.99,,2013-08-07 18:02:00,
2013-08-07 14:22:00,74.0,60.0,30.34,East,91,2.0,8.0,62,-99.99,,,-99.99,,2013-08-07 18:22:00,
2013-08-07 14:32:00,74.0,60.0,30.34,South,172,2.0,8.0,62,-99.99,,,-99.99,,2013-08-07 18:32:00,
2013-08-07 14:43:00,74.0,61.0,30.33,SSE,163,2.0,7.0,63,-99.99,,,-99.99,,2013-08-07 18:43:00,
2013-08-07 14:52:00,75.0,62.0,30.33,WNW,296,2.0,6.0,64,-99.99,,,-99.99,,2013-08-07 18:52:00,
2013-08-07 15:01:00,76.0,62.0,30.32,South,169,2.0,9.0,61,-99.99,,,-99.99,,2013-08-07 19:01:00,
2013-08-07 15:11:00,76.0,62.0,30.32,SE,142,2.0,7.0,62,-99.99,,,-99.99,,2013-08-07 19:11:00,
2013-08-07 15:22:00,76.0,61.0,30.32,WNW,282,3.0,7.0,59,-99.99,,,-99.99,,2013-08-07 19:22:00,
2013-08-07 15:32:00,76.0,61.0,30.32,WNW,282,3.0,7.0,59,-99.99,,,-99.99,,2013-08-07 19:32:00,
2013-08-07 15:52:00,77.0,63.0,30.32,SSE,163,2.0,8.0,63,-99.99,,,-99.99,,2013-08-07 19:52:00,
2013-08-07 16:02:00,77.0,63.0,30.31,South,181,2.0,6.0,63,-99.99,,,-99.99,,2013-08-07 20:02:00,
2013-08-07 16:22:00,76.0,63.0,30.31,ENE,78,2.0,7.0,64,-99.99,,,-99.99,,2013-08-07 20:22:00,
2013-08-07 16:33:00,76.0,63.0,30.30,SW,232,2.0,10.0,64,-99.99,,,-99.99,,2013-08-07 20:33:00,
2013-08-07 16:43:00,76.0,63.0,30.30,SW,232,2.0,10.0,64,-99.99,,,-99.99,,2013-08-07 20:43:00,
2013-08-07 16:52:00,74.0,62.0,30.30,WNW,291,2.0,9.0,67,-99.99,,,-99.99,,2013-08-07 20:52:00,
2013-08-07 17:01:00,73.0,63.0,30.30,SE,140,1.0,5.0,71,-99.99,,,-99.99,,2013-08-07 21:01:00,
2013-08-07 17:11:00,73.0,63.0,30.30,SE,146,1.0,6.0,72,-99.99,,,-99.99,,2013-08-07 21:11:00,
2013-08-07 17:32:00,72.0,63.0,30.30,ESE,120,2.0,6.0,74,-99.99,,,-99.99,,2013-08-07 21:32:00,
2013-08-07 17:43:00,71.0,63.0,30.30,ESE,117,2.0,6.0,75,-99.99,,,-99.99,,2013-08-07 21:43:00,
2013-08-07 17:52:00,71.0,63.0,30.30,East,91,1.0,6.0,77,-99.99,,,-99.99,,2013-08-07 21:52:00,
2013-08-07 18:01:00,70.0,62.0,30.29,ESE,114,1.0,6.0,77,-99.99,,,-99.99,,2013-08-07 22:01:00,
2013-08-07 18:32:00,70.0,63.0,30.29,SE,145,3.0,9.0,79,-99.99,,,-99.99,,2013-08-07 22:32:00,
2013-08-07 18:52:00,70.0,64.0,30.29,SE,135,2.0,9.0,80,-99.99,,,-99.99,,2013-08-07 22:52:00,
2013-08-07 19:01:00,70.0,64.0,30.29,ENE,75,2.0,6.0,80,-99.99,,,-99.99,,2013-08-07 23:01:00,
2013-08-07 19:11:00,70.0,64.0,30.29,ENE,75,2.0,6.0,80,-99.99,,,-99.99,,2013-08-07 23:11:00,
2013-08-07 19:22:00,69.0,63.0,30.29,NW,311,1.0,7.0,81,-99.99,,,-99.99,,2013-08-07 23:22:00,
2013-08-07 19:32:00,69.0,63.0,30.28,SSE,159,2.0,9.0,82,-99.99,,,-99.99,,2013-08-07 23:32:00,
2013-08-07 19:43:00,69.0,63.0,30.29,SSE,148,1.0,9.0,82,-99.99,,,-99.99,,2013-08-07 23:43:00,
2013-08-07 19:52:00,69.0,64.0,30.29,SSW,195,1.0,9.0,83,-99.99,,,-99.99,,2013-08-07 23:52:00,
2013-08-07 20:01:00,69.0,64.0,30.28,SSE,153,1.0,5.0,84,-99.99,,,-99.99,,2013-08-08 00:01:00,
2013-08-07 20:22:00,68.0,63.0,30.28,SSE,155,1.0,5.0,84,-99.99,,,-99.99,,2013-08-08 00:22:00,
2013-08-07 20:32:00,68.0,63.0,30.29,SE,136,1.0,5.0,85,-99.99,,,-99.99,,2013-08-08 00:32:00,
2013-08-07 20:43:00,68.0,64.0,30.28,SE,142,1.0,3.0,86,-99.99,,,-99.99,,2013-08-08 00:43:00,
2013-08-07 20:52:00,68.0,64.0,30.28,SE,142,1.0,3.0,86,-99.99,,,-99.99,,2013-08-08 00:52:00,
2013-08-07 21:02:00,67.0,63.0,30.28,East,80,0.0,4.0,87,-99.99,,,-99.99,,2013-08-08 01:02:00,
2013-08-07 21:11:00,67.0,63.0,30.28,SE,128,1.0,4.0,87,-99.99,,,-99.99,,2013-08-08 01:11:00,
2013-08-07 21:22:00,67.0,63.0,30.28,SE,128,1.0,4.0,87,-99.99,,,-99.99,,2013-08-08 01:22:00,
2013-08-07 21:32:00,67.0,63.0,30.28,SSE,155,1.0,4.0,88,-99.99,,,-99.99,,2013-08-08 01:32:00,
2013-08-07 21:43:00,67.0,63.0,30.28,SSE,168,1.0,4.0,87,-99.99,,,-99.99,,2013-08-08 01:43:00,
2013-08-07 21:52:00,68.0,64.0,30.28,East,89,1.0,3.0,87,-99.99,,,-99.99,,2013-08-08 01:52:00,
2013-08-07 22:02:00,68.0,64.0,30.28,ESE,111,1.0,4.0,87,-99.99,,,-99.99,,2013-08-08 02:02:00,
2013-08-07 22:22:00,68.0,64.0,30.28,East,79,1.0,5.0,87,-99.99,,,-99.99,,2013-08-08 02:22:00,
2013-08-07 22:32:00,68.0,64.0,30.29,SSE,148,1.0,4.0,87,-99.99,,,-99.99,,2013-08-08 02:32:00,
2013-08-07 22:43:00,68.0,64.0,30.29,SSE,151,0.0,4.0,86,-99.99,,,-99.99,,2013-08-08 02:43:00,
2013-08-07 22:52:00,68.0,64.0,30.28,SSE,153,1.0,3.0,86,-99.99,,,-99.99,,2013-08-08 02:52:00,
2013-08-07 23:02:00,68.0,64.0,30.29,East,101,1.0,4.0,86,-99.99,,,-99.99,,2013-08-08 03:02:00,
2013-08-07 23:12:00,68.0,64.0,30.29,East,101,1.0,4.0,86,-99.99,,,-99.99,,2013-08-08 03:12:00,
2013-08-07 23:22:00,68.0,64.0,30.28,SSE,153,1.0,3.0,86,-99.99,,,-99.99,,2013-08-08 03:22:00,
2013-08-07 23:32:00,69.0,65.0,30.28,SE,145,1.0,4.0,86,-99.99,,,-99.99,,2013-08-08 03:32:00,
2013-08-07 23:43:00,69.0,64.0,30.28,NNW,340,1.0,5.0,85,-99.99,,,-99.99,,2013-08-08 03:43:00,
2013-08-07 23:52:00,69.0,64.0,30.28,SSE,158,0.0,5.0,85,-99.99,,,-99.99,,2013-08-08 03:52:00,